Location: Village de las Huertas
(35.3014°N, 106.4095°W)
Time: 17:08:16
(UTC+00:00)

Cosmos 1892 Rocket - Pass Details

Date: 29 October 2020
Orbit: 607 x 632 km, 82.5° (Epoch: 25 November)

Event Time Altitude Azimuth Distance (km) Brightness Sun altitude
Rises 12:15:35 0° 205° (SSW) 2,852 6.8 -14.7°
Reaches altitude 10° 12:17:55 10° 214° (SW) 1,955 5.9 -14.2°
Maximum altitude 12:21:54 36° 281° (W) 980 4.0 -13.4°
Drops below altitude 10° 12:25:57 10° 348° (NNW) 1,979 6.0 -12.6°
Sets 12:28:20 0° 357° (N) 2,893 6.9 -12.1°
